Flag for France Weather past 2 weeks in Paris, France

Now
54 °F

Mostly cloudy.


Feels Like: 51 °F
Forecast: 46 / 56 °F
Wind: 9 mph from Southwest

Location: Villacoublay

Current Time: Oct 21, 2014 at 10:43:25 AM

Latest Report: Oct 21, 2014 at 10:00 AM


Visibility: N/A

Pressure: 29.89 "Hg

Humidity: 94%

Dew point: 52 °F

Location of ParisLocation

Historic Weather in Paris — Graph

°F

Paris temperature yesterday

Maximum temperature yesterday: 63 °F (at 2:30 PM)
Minimum temperature yesterday: 52 °F (at 11:00 PM)
Average temperature yesterday: 57 °F

Past Weeks' High & Low Weather Summary

 TemperatureHumidityPressure
High73 °F (Oct 18, 2:00 PM)100% (Oct 6, 8:00 PM)30.15 "Hg (Oct 6, 8:00 PM)
Low45 °F (Oct 14, 7:30 AM)49% (Oct 14, 3:30 PM)29.56 "Hg (Oct 7, 4:00 AM)
Average58 °F84%29.83 "Hg
* Reported Oct 6 9:00 AM — Oct 21 9:30 AM, Paris, Weather by CustomWeather, © 2014

Note: Actual official high and low records may vary slightly from our data, if they occured in-between our weather recording intervals... More about our weather records

Advertising

Paris weather history for previous 24 hours

 ConditionsComfort  
Time TempWeatherWind HumidityBarometerVisibility
9:30 AM
Oct 21
54 °FPartly sunny.9 mph94%29.89 "HgN/A
9:00 AM54 °FPartly cloudy.12 mph88%29.89 "HgN/A
8:30 AM52 °FOvercast.10 mph94%29.92 "HgN/A
8:00 AM52 °FPassing clouds.10 mph94%29.92 "HgN/A
7:30 AM52 °FPassing clouds.12 mph94%29.92 "HgN/A
7:00 AM52 °FPassing clouds.10 mph94%29.92 "HgN/A
6:30 AM52 °FPassing clouds.8 mph94%29.95 "HgN/A
6:00 AM52 °FMostly cloudy.9 mph94%29.95 "Hg6 mi
5:00 AM52 °FDense fog.12 mph94%29.98 "Hg1 mi
4:30 AM50 °FPassing clouds.6 mph100%29.98 "Hg4 mi
4:00 AM50 °FFog.5 mph100%30.01 "Hg3 mi
3:30 AM52 °FFog.5 mph94%30.01 "Hg3 mi
3:00 AM52 °FFog.6 mph94%30.01 "Hg2 mi
2:30 AM52 °FFog.8 mph94%30.04 "Hg1 mi
2:00 AM52 °FFog.7 mph100%30.04 "Hg0 mi
1:30 AM52 °FDense fog.7 mph100%30.04 "Hg1 mi
1:00 AM52 °FFog.3 mph94%30.04 "Hg3 mi
12:30 AM52 °FPassing clouds.5 mph100%30.07 "Hg4 mi
12:00 AM54 °FFog.8 mph94%30.07 "Hg3 mi
11:30 PM
Oct 20
54 °FFog.7 mph94%30.07 "Hg1 mi
11:00 PM52 °FPassing clouds.5 mph100%30.07 "Hg1 mi
10:30 PM54 °FFog.5 mph94%30.07 "Hg2 mi
10:00 PM54 °FFog.3 mph94%30.07 "Hg0 mi
9:30 PM54 °FPassing clouds.3 mph94%30.07 "HgN/A
9:00 PM54 °FClear.5 mph100%30.07 "HgN/A
8:30 PM55 °FClear.5 mph94%30.07 "HgN/A
8:00 PM54 °FClear.3 mph100%30.07 "Hg4 mi
7:30 PM55 °FClear.2 mph94%30.07 "HgN/A
7:00 PM55 °FClear.3 mph88%30.07 "HgN/A
6:30 PM57 °FClear.5 mph82%30.07 "HgN/A
6:00 PM57 °FClear.5 mph88%30.07 "HgN/A
5:30 PM57 °FLight rain. Overcast.3 mph88%30.09 "HgN/A
5:00 PM59 °FLight rain. Overcast.5 mph88%30.09 "HgN/A
4:30 PM59 °FLight rain. Overcast.5 mph82%30.09 "HgN/A
4:00 PM61 °FLight rain. Broken clouds.8 mph72%30.12 "HgN/A
3:30 PM61 °FMore clouds than sun.8 mph72%30.12 "HgN/A
3:00 PM61 °FBroken clouds.7 mph72%30.12 "HgN/A
2:30 PM63 °FOvercast.7 mph68%30.12 "HgN/A
2:00 PM61 °FBroken clouds.6 mph77%30.12 "HgN/A
1:30 PM59 °FPartly sunny.3 mph82%30.15 "HgN/A
1:00 PM59 °FCool.8 mph82%30.15 "HgN/A
12:30 PM59 °FClear.6 mph82%30.15 "HgN/A
12:00 PM59 °FBroken clouds.6 mph88%30.15 "HgN/A
11:30 AM57 °FBroken clouds.7 mph88%30.15 "HgN/A
11:00 AM57 °FBroken clouds.3 mph94%30.15 "HgN/A
10:30 AM57 °FMostly cloudy.6 mph94%30.15 "HgN/A
10:00 AM57 °FClear.3 mph94%30.15 "HgN/A
Weather by CustomWeather, © 2014

See weather overviewHow to use our weather pages